owner,sensor,date,latitude,longitude,vertical_datum,sea_water_temperature,qcFlag 
NERRS,ioos:station:NOAA.NERRS:marabwq:1,2016-03-01T00:45:00Z,27.9798,-97.0287,0.0,19.5,2 
NERRS,ioos:station:NOAA.NERRS:marabwq:1,2016-03-01T01:45:00Z,27.9798,-97.0287,0.0,19.4,2 
NERRS,ioos:station:NOAA.NERRS:marabwq:1,2016-03-01T02:45:00Z,27.9798,-97.0287,0.0,19.4,2 
NERRS,ioos:station:NOAA.NERRS:marabwq:1,2016-03-01T03:45:00Z,27.9798,-97.0287,0.0,19.4,2 
NERRS,ioos:station:NOAA.NERRS:marabwq:1,2016-03-01T08:45:00Z,27.9798,-97.0287,0.0,19.3,2 
NERRS,ioos:station:NOAA.NERRS:marabwq:1,2016-03-01T09:45:00Z,27.9798,-97.0287,0.0,19.4,2 
NERRS,ioos:station:NOAA.NERRS:marabwq:1,2016-03-01T10:45:00Z,27.9798,-97.0287,0.0,19.4,2 
NERRS,ioos:station:NOAA.NERRS:marabwq:1,2016-03-01T11:45:00Z,27.9798,-97.0287,0.0,19.4,2 
NERRS,ioos:station:NOAA.NERRS:marabwq:1,2016-03-01T12:45:00Z,27.9798,-97.0287,0.0,19.4,2 
NERRS,ioos:station:NOAA.NERRS:marabwq:1,2016-03-01T15:45:00Z,27.9798,-97.0287,0.0,19.5,2 
NERRS,ioos:station:NOAA.NERRS:marabwq:1,2016-03-01T16:45:00Z,27.9798,-97.0287,0.0,19.5,2 
NERRS,ioos:station:NOAA.NERRS:marabwq:1,2016-03-01T17:45:00Z,27.9798,-97.0287,0.0,19.7,2 
NERRS,ioos:station:NOAA.NERRS:marabwq:1,2016-03-01T18:45:00Z,27.9798,-97.0287,0.0,19.8,2 
NERRS,ioos:station:NOAA.NERRS:marabwq:1,2016-03-01T20:45:00Z,27.9798,-97.0287,0.0,20.3,2 
NERRS,ioos:station:NOAA.NERRS:marabwq:1,2016-03-01T21:45:00Z,27.9798,-97.0287,0.0,20.4,2 
NERRS,ioos:station:NOAA.NERRS:marabwq:1,2016-03-01T22:45:00Z,27.9798,-97.0287,0.0,20.5,2 
NERRS,ioos:station:NOAA.NERRS:marabwq:1,2016-03-01T23:45:00Z,27.9798,-97.0287,0.0,20.4,2 
NERRS,ioos:station:NOAA.NERRS:marabwq:1,2016-03-02T00:45:00Z,27.9798,-97.0287,0.0,20.5,2 
NERRS,ioos:station:NOAA.NERRS:marabwq:1,2016-03-02T01:45:00Z,27.9798,-97.0287,0.0,20.5,2 
NERRS,ioos:station:NOAA.NERRS:marabwq:1,2016-03-02T02:45:00Z,27.9798,-97.0287,0.0,20.6,2 
NERRS,ioos:station:NOAA.NERRS:marabwq:1,2016-03-02T03:45:00Z,27.9798,-97.0287,0.0,20.6,2 
NERRS,ioos:station:NOAA.NERRS:marabwq:1,2016-03-02T05:45:00Z,27.9798,-97.0287,0.0,20.8,2 
NERRS,ioos:station:NOAA.NERRS:marabwq:1,2016-03-02T06:45:00Z,27.9798,-97.0287,0.0,20.8,2 
NERRS,ioos:station:NOAA.NERRS:marabwq:1,2016-03-02T07:45:00Z,27.9798,-97.0287,0.0,20.7,2 
NERRS,ioos:station:NOAA.NERRS:marabwq:1,2016-03-02T09:45:00Z,27.9798,-97.0287,0.0,20.6,2 
NERRS,ioos:station:NOAA.NERRS:marabwq:1,2016-03-02T10:45:00Z,27.9798,-97.0287,0.0,20.4,2 
NERRS,ioos:station:NOAA.NERRS:marabwq:1,2016-03-02T11:45:00Z,27.9798,-97.0287,0.0,20.3,2 
NERRS,ioos:station:NOAA.NERRS:marabwq:1,2016-03-02T12:45:00Z,27.9798,-97.0287,0.0,20.2,2 
NERRS,ioos:station:NOAA.NERRS:marabwq:1,2016-03-02T13:45:00Z,27.9798,-97.0287,0.0,20.2,2 
NERRS,ioos:station:NOAA.NERRS:marabwq:1,2016-03-02T14:45:00Z,27.9798,-97.0287,0.0,20.1,2 
NERRS,ioos:station:NOAA.NERRS:marabwq:1,2016-03-02T15:45:00Z,27.9798,-97.0287,0.0,20.2,2 
NERRS,ioos:station:NOAA.NERRS:marabwq:1,2016-03-02T16:45:00Z,27.9798,-97.0287,0.0,20.2,2 
NERRS,ioos:station:NOAA.NERRS:marabwq:1,2016-03-02T17:45:00Z,27.9798,-97.0287,0.0,20.3,2 
NERRS,ioos:station:NOAA.NERRS:marabwq:1,2016-03-02T18:45:00Z,27.9798,-97.0287,0.0,20.4,2 
NERRS,ioos:station:NOAA.NERRS:marabwq:1,2016-03-02T19:45:00Z,27.9798,-97.0287,0.0,20.6,2 
NERRS,ioos:station:NOAA.NERRS:marabwq:1,2016-03-02T20:45:00Z,27.9798,-97.0287,0.0,20.7,2 
NERRS,ioos:station:NOAA.NERRS:marabwq:1,2016-03-02T21:45:00Z,27.9798,-97.0287,0.0,20.8,2 
NERRS,ioos:station:NOAA.NERRS:marabwq:1,2016-03-02T22:45:00Z,27.9798,-97.0287,0.0,20.9,2 
NERRS,ioos:station:NOAA.NERRS:marabwq:1,2016-03-02T23:45:00Z,27.9798,-97.0287,0.0,20.9,2 
NERRS,ioos:station:NOAA.NERRS:marabwq:1,2016-03-03T00:45:00Z,27.9798,-97.0287,0.0,20.9,2 
NERRS,ioos:station:NOAA.NERRS:marabwq:1,2016-03-03T01:45:00Z,27.9798,-97.0287,0.0,20.8,2 
NERRS,ioos:station:NOAA.NERRS:marabwq:1,2016-03-03T02:45:00Z,27.9798,-97.0287,0.0,20.8,2 
NERRS,ioos:station:NOAA.NERRS:marabwq:1,2016-03-03T03:45:00Z,27.9798,-97.0287,0.0,20.8,2 
NERRS,ioos:station:NOAA.NERRS:marabwq:1,2016-03-03T04:45:00Z,27.9798,-97.0287,0.0,20.8,2 
NERRS,ioos:station:NOAA.NERRS:marabwq:1,2016-03-03T05:45:00Z,27.9798,-97.0287,0.0,20.8,2 
NERRS,ioos:station:NOAA.NERRS:marabwq:1,2016-03-03T06:45:00Z,27.9798,-97.0287,0.0,20.8,2 
NERRS,ioos:station:NOAA.NERRS:marabwq:1,2016-03-03T07:45:00Z,27.9798,-97.0287,0.0,20.8,2 
NERRS,ioos:station:NOAA.NERRS:marabwq:1,2016-03-03T08:45:00Z,27.9798,-97.0287,0.0,20.8,2 
NERRS,ioos:station:NOAA.NERRS:marabwq:1,2016-03-03T09:45:00Z,27.9798,-97.0287,0.0,20.8,2 
NERRS,ioos:station:NOAA.NERRS:marabwq:1,2016-03-03T10:45:00Z,27.9798,-97.0287,0.0,20.8,2 
NERRS,ioos:station:NOAA.NERRS:marabwq:1,2016-03-03T11:45:00Z,27.9798,-97.0287,0.0,20.7,2 
NERRS,ioos:station:NOAA.NERRS:marabwq:1,2016-03-03T13:45:00Z,27.9798,-97.0287,0.0,20.7,2 
NERRS,ioos:station:NOAA.NERRS:marabwq:1,2016-03-03T14:45:00Z,27.9798,-97.0287,0.0,20.7,2 
NERRS,ioos:station:NOAA.NERRS:marabwq:1,2016-03-03T15:45:00Z,27.9798,-97.0287,0.0,20.7,2 
NERRS,ioos:station:NOAA.NERRS:marabwq:1,2016-03-03T16:45:00Z,27.9798,-97.0287,0.0,20.8,2 
NERRS,ioos:station:NOAA.NERRS:marabwq:1,2016-03-03T17:45:00Z,27.9798,-97.0287,0.0,20.8,2 
NERRS,ioos:station:NOAA.NERRS:marabwq:1,2016-03-03T18:45:00Z,27.9798,-97.0287,0.0,21.0,2 
NERRS,ioos:station:NOAA.NERRS:marabwq:1,2016-03-03T19:45:00Z,27.9798,-97.0287,0.0,21.2,2 
NERRS,ioos:station:NOAA.NERRS:marabwq:1,2016-03-03T20:45:00Z,27.9798,-97.0287,0.0,21.9,2 
NERRS,ioos:station:NOAA.NERRS:marabwq:1,2016-03-03T21:45:00Z,27.9798,-97.0287,0.0,21.5,2 
NERRS,ioos:station:NOAA.NERRS:marabwq:1,2016-03-03T22:45:00Z,27.9798,-97.0287,0.0,21.6,2 
NERRS,ioos:station:NOAA.NERRS:marabwq:1,2016-03-03T23:45:00Z,27.9798,-97.0287,0.0,21.0,2 
NERRS,ioos:station:NOAA.NERRS:marabwq:1,2016-03-04T00:45:00Z,27.9798,-97.0287,0.0,21.3,2 
NERRS,ioos:station:NOAA.NERRS:marabwq:1,2016-03-04T01:45:00Z,27.9798,-97.0287,0.0,21.4,2 
NERRS,ioos:station:NOAA.NERRS:marabwq:1,2016-03-04T02:45:00Z,27.9798,-97.0287,0.0,21.4,2 
NERRS,ioos:station:NOAA.NERRS:marabwq:1,2016-03-04T03:45:00Z,27.9798,-97.0287,0.0,21.4,2 
NERRS,ioos:station:NOAA.NERRS:marabwq:1,2016-03-04T04:45:00Z,27.9798,-97.0287,0.0,21.5,2 
NERRS,ioos:station:NOAA.NERRS:marabwq:1,2016-03-04T05:45:00Z,27.9798,-97.0287,0.0,21.4,2 
NERRS,ioos:station:NOAA.NERRS:marabwq:1,2016-03-04T06:45:00Z,27.9798,-97.0287,0.0,21.3,2 
NERRS,ioos:station:NOAA.NERRS:marabwq:1,2016-03-04T07:45:00Z,27.9798,-97.0287,0.0,21.3,2 
NERRS,ioos:station:NOAA.NERRS:marabwq:1,2016-03-04T09:45:00Z,27.9798,-97.0287,0.0,21.1,2 
NERRS,ioos:station:NOAA.NERRS:marabwq:1,2016-03-04T10:45:00Z,27.9798,-97.0287,0.0,21.0,2 
NERRS,ioos:station:NOAA.NERRS:marabwq:1,2016-03-04T11:45:00Z,27.9798,-97.0287,0.0,20.9,2 
NERRS,ioos:station:NOAA.NERRS:marabwq:1,2016-03-04T12:45:00Z,27.9798,-97.0287,0.0,20.8,2 
NERRS,ioos:station:NOAA.NERRS:marabwq:1,2016-03-04T13:45:00Z,27.9798,-97.0287,0.0,20.8,2 
NERRS,ioos:station:NOAA.NERRS:marabwq:1,2016-03-04T14:45:00Z,27.9798,-97.0287,0.0,20.7,2 
NERRS,ioos:station:NOAA.NERRS:marabwq:1,2016-03-04T15:45:00Z,27.9798,-97.0287,0.0,20.7,2 
NERRS,ioos:station:NOAA.NERRS:marabwq:1,2016-03-04T16:45:00Z,27.9798,-97.0287,0.0,20.7,2 
NERRS,ioos:station:NOAA.NERRS:marabwq:1,2016-03-04T17:45:00Z,27.9798,-97.0287,0.0,20.8,2 
NERRS,ioos:station:NOAA.NERRS:marabwq:1,2016-03-04T18:45:00Z,27.9798,-97.0287,0.0,20.9,2 
NERRS,ioos:station:NOAA.NERRS:marabwq:1,2016-03-04T19:45:00Z,27.9798,-97.0287,0.0,21.1,2 
NERRS,ioos:station:NOAA.NERRS:marabwq:1,2016-03-04T20:45:00Z,27.9798,-97.0287,0.0,21.3,2 
NERRS,ioos:station:NOAA.NERRS:marabwq:1,2016-03-04T21:45:00Z,27.9798,-97.0287,0.0,21.4,2 
NERRS,ioos:station:NOAA.NERRS:marabwq:1,2016-03-04T22:45:00Z,27.9798,-97.0287,0.0,21.4,2 
NERRS,ioos:station:NOAA.NERRS:marabwq:1,2016-03-04T23:45:00Z,27.9798,-97.0287,0.0,21.4,2 
NERRS,ioos:station:NOAA.NERRS:marabwq:1,2016-03-05T00:45:00Z,27.9798,-97.0287,0.0,21.3,2 
NERRS,ioos:station:NOAA.NERRS:marabwq:1,2016-03-05T01:45:00Z,27.9798,-97.0287,0.0,21.2,2 
NERRS,ioos:station:NOAA.NERRS:marabwq:1,2016-03-05T02:45:00Z,27.9798,-97.0287,0.0,21.2,2 
NERRS,ioos:station:NOAA.NERRS:marabwq:1,2016-03-05T03:45:00Z,27.9798,-97.0287,0.0,21.1,2 
NERRS,ioos:station:NOAA.NERRS:marabwq:1,2016-03-05T04:45:00Z,27.9798,-97.0287,0.0,21.1,2 
NERRS,ioos:station:NOAA.NERRS:marabwq:1,2016-03-05T05:45:00Z,27.9798,-97.0287,0.0,21.0,2 
NERRS,ioos:station:NOAA.NERRS:marabwq:1,2016-03-05T06:45:00Z,27.9798,-97.0287,0.0,21.0,2 
NERRS,ioos:station:NOAA.NERRS:marabwq:1,2016-03-05T07:45:00Z,27.9798,-97.0287,0.0,20.9,2 
NERRS,ioos:station:NOAA.NERRS:marabwq:1,2016-03-05T09:45:00Z,27.9798,-97.0287,0.0,20.9,2 
NERRS,ioos:station:NOAA.NERRS:marabwq:1,2016-03-05T10:45:00Z,27.9798,-97.0287,0.0,20.8,2 
NERRS,ioos:station:NOAA.NERRS:marabwq:1,2016-03-05T12:45:00Z,27.9798,-97.0287,0.0,20.8,2 
NERRS,ioos:station:NOAA.NERRS:marabwq:1,2016-03-05T13:45:00Z,27.9798,-97.0287,0.0,20.8,2 
NERRS,ioos:station:NOAA.NERRS:marabwq:1,2016-03-05T14:45:00Z,27.9798,-97.0287,0.0,20.8,2 
NERRS,ioos:station:NOAA.NERRS:marabwq:1,2016-03-05T15:45:00Z,27.9798,-97.0287,0.0,20.9,2 
NERRS,ioos:station:NOAA.NERRS:marabwq:1,2016-03-05T16:45:00Z,27.9798,-97.0287,0.0,20.9,2 
NERRS,ioos:station:NOAA.NERRS:marabwq:1,2016-03-05T17:45:00Z,27.9798,-97.0287,0.0,21.0,2 
NERRS,ioos:station:NOAA.NERRS:marabwq:1,2016-03-05T18:45:00Z,27.9798,-97.0287,0.0,21.2,2 
NERRS,ioos:station:NOAA.NERRS:marabwq:1,2016-03-05T19:45:00Z,27.9798,-97.0287,0.0,21.3,2 
NERRS,ioos:station:NOAA.NERRS:marabwq:1,2016-03-05T20:45:00Z,27.9798,-97.0287,0.0,21.4,2 
NERRS,ioos:station:NOAA.NERRS:marabwq:1,2016-03-05T21:45:00Z,27.9798,-97.0287,0.0,21.5,2 
NERRS,ioos:station:NOAA.NERRS:marabwq:1,2016-03-05T22:45:00Z,27.9798,-97.0287,0.0,21.5,2 
NERRS,ioos:station:NOAA.NERRS:marabwq:1,2016-03-05T23:45:00Z,27.9798,-97.0287,0.0,21.5,2 
NERRS,ioos:station:NOAA.NERRS:marabwq:1,2016-03-06T00:45:00Z,27.9798,-97.0287,0.0,21.4,2 
NERRS,ioos:station:NOAA.NERRS:marabwq:1,2016-03-06T01:45:00Z,27.9798,-97.0287,0.0,21.3,2 
NERRS,ioos:station:NOAA.NERRS:marabwq:1,2016-03-06T02:45:00Z,27.9798,-97.0287,0.0,21.2,2 
NERRS,ioos:station:NOAA.NERRS:marabwq:1,2016-03-06T03:45:00Z,27.9798,-97.0287,0.0,21.2,2 
NERRS,ioos:station:NOAA.NERRS:marabwq:1,2016-03-06T04:45:00Z,27.9798,-97.0287,0.0,21.1,2 
NERRS,ioos:station:NOAA.NERRS:marabwq:1,2016-03-06T05:45:00Z,27.9798,-97.0287,0.0,21.1,2 
NERRS,ioos:station:NOAA.NERRS:marabwq:1,2016-03-06T06:45:00Z,27.9798,-97.0287,0.0,21.0,2 
NERRS,ioos:station:NOAA.NERRS:marabwq:1,2016-03-06T07:45:00Z,27.9798,-97.0287,0.0,21.0,2 
NERRS,ioos:station:NOAA.NERRS:marabwq:1,2016-03-06T09:45:00Z,27.9798,-97.0287,0.0,20.9,2 
NERRS,ioos:station:NOAA.NERRS:marabwq:1,2016-03-06T10:45:00Z,27.9798,-97.0287,0.0,20.9,2 
NERRS,ioos:station:NOAA.NERRS:marabwq:1,2016-03-06T11:45:00Z,27.9798,-97.0287,0.0,20.9,2 
NERRS,ioos:station:NOAA.NERRS:marabwq:1,2016-03-06T12:45:00Z,27.9798,-97.0287,0.0,20.9,2 
NERRS,ioos:station:NOAA.NERRS:marabwq:1,2016-03-06T13:45:00Z,27.9798,-97.0287,0.0,21.0,2 
NERRS,ioos:station:NOAA.NERRS:marabwq:1,2016-03-06T14:45:00Z,27.9798,-97.0287,0.0,21.0,2 
NERRS,ioos:station:NOAA.NERRS:marabwq:1,2016-03-06T15:45:00Z,27.9798,-97.0287,0.0,21.0,2 
NERRS,ioos:station:NOAA.NERRS:marabwq:1,2016-03-06T16:45:00Z,27.9798,-97.0287,0.0,21.1,2 
NERRS,ioos:station:NOAA.NERRS:marabwq:1,2016-03-06T17:45:00Z,27.9798,-97.0287,0.0,21.2,2 
NERRS,ioos:station:NOAA.NERRS:marabwq:1,2016-03-06T18:45:00Z,27.9798,-97.0287,0.0,21.4,2 
NERRS,ioos:station:NOAA.NERRS:marabwq:1,2016-03-06T19:45:00Z,27.9798,-97.0287,0.0,21.5,2 
NERRS,ioos:station:NOAA.NERRS:marabwq:1,2016-03-06T20:45:00Z,27.9798,-97.0287,0.0,21.6,2 
NERRS,ioos:station:NOAA.NERRS:marabwq:1,2016-03-06T21:45:00Z,27.9798,-97.0287,0.0,21.7,2 
NERRS,ioos:station:NOAA.NERRS:marabwq:1,2016-03-06T22:45:00Z,27.9798,-97.0287,0.0,21.7,2 
NERRS,ioos:station:NOAA.NERRS:marabwq:1,2016-03-06T23:45:00Z,27.9798,-97.0287,0.0,21.7,2 
NERRS,ioos:station:NOAA.NERRS:marabwq:1,2016-03-07T00:45:00Z,27.9798,-97.0287,0.0,21.7,2 
NERRS,ioos:station:NOAA.NERRS:marabwq:1,2016-03-07T01:45:00Z,27.9798,-97.0287,0.0,21.6,2 
NERRS,ioos:station:NOAA.NERRS:marabwq:1,2016-03-07T02:45:00Z,27.9798,-97.0287,0.0,21.6,2 
NERRS,ioos:station:NOAA.NERRS:marabwq:1,2016-03-07T03:45:00Z,27.9798,-97.0287,0.0,21.5,2 
NERRS,ioos:station:NOAA.NERRS:marabwq:1,2016-03-07T04:45:00Z,27.9798,-97.0287,0.0,21.5,2 
NERRS,ioos:station:NOAA.NERRS:marabwq:1,2016-03-07T05:45:00Z,27.9798,-97.0287,0.0,21.4,2 
NERRS,ioos:station:NOAA.NERRS:marabwq:1,2016-03-07T06:45:00Z,27.9798,-97.0287,0.0,21.4,2 
NERRS,ioos:station:NOAA.NERRS:marabwq:1,2016-03-07T07:45:00Z,27.9798,-97.0287,0.0,21.4,2 
NERRS,ioos:station:NOAA.NERRS:marabwq:1,2016-03-07T09:45:00Z,27.9798,-97.0287,0.0,21.3,2 
NERRS,ioos:station:NOAA.NERRS:marabwq:1,2016-03-07T10:45:00Z,27.9798,-97.0287,0.0,21.1,2 
NERRS,ioos:station:NOAA.NERRS:marabwq:1,2016-03-07T12:45:00Z,27.9798,-97.0287,0.0,21.0,2 
NERRS,ioos:station:NOAA.NERRS:marabwq:1,2016-03-07T13:45:00Z,27.9798,-97.0287,0.0,21.2,2 
NERRS,ioos:station:NOAA.NERRS:marabwq:1,2016-03-07T14:45:00Z,27.9798,-97.0287,0.0,21.2,2 
NERRS,ioos:station:NOAA.NERRS:marabwq:1,2016-03-07T15:45:00Z,27.9798,-97.0287,0.0,21.3,2 
NERRS,ioos:station:NOAA.NERRS:marabwq:1,2016-03-07T16:45:00Z,27.9798,-97.0287,0.0,21.4,2 
NERRS,ioos:station:NOAA.NERRS:marabwq:1,2016-03-07T18:45:00Z,27.9798,-97.0287,0.0,21.7,2 
NERRS,ioos:station:NOAA.NERRS:marabwq:1,2016-03-07T20:45:00Z,27.9798,-97.0287,0.0,21.9,2 
NERRS,ioos:station:NOAA.NERRS:marabwq:1,2016-03-08T10:45:00Z,27.9798,-97.0287,0.0,21.3,2 
NERRS,ioos:station:NOAA.NERRS:marabwq:1,2016-03-08T11:45:00Z,27.9798,-97.0287,0.0,21.4,2 
NERRS,ioos:station:NOAA.NERRS:marabwq:1,2016-03-08T12:45:00Z,27.9798,-97.0287,0.0,21.4,2 
NERRS,ioos:station:NOAA.NERRS:marabwq:1,2016-03-08T13:45:00Z,27.9798,-97.0287,0.0,21.4,2 
NERRS,ioos:station:NOAA.NERRS:marabwq:1,2016-03-08T14:45:00Z,27.9798,-97.0287,0.0,21.4,2 
NERRS,ioos:station:NOAA.NERRS:marabwq:1,2016-03-08T15:45:00Z,27.9798,-97.0287,0.0,21.5,2 
NERRS,ioos:station:NOAA.NERRS:marabwq:1,2016-03-08T16:45:00Z,27.9798,-97.0287,0.0,21.5,2 
NERRS,ioos:station:NOAA.NERRS:marabwq:1,2016-03-08T17:45:00Z,27.9798,-97.0287,0.0,21.4,2 
NERRS,ioos:station:NOAA.NERRS:marabwq:1,2016-03-08T18:45:00Z,27.9798,-97.0287,0.0,21.7,2 
NERRS,ioos:station:NOAA.NERRS:marabwq:1,2016-03-08T19:45:00Z,27.9798,-97.0287,0.0,21.7,2 
NERRS,ioos:station:NOAA.NERRS:marabwq:1,2016-03-08T20:45:00Z,27.9798,-97.0287,0.0,21.8,2 
NERRS,ioos:station:NOAA.NERRS:marabwq:1,2016-03-08T21:45:00Z,27.9798,-97.0287,0.0,21.9,2 
NERRS,ioos:station:NOAA.NERRS:marabwq:1,2016-03-08T22:45:00Z,27.9798,-97.0287,0.0,21.9,2 
NERRS,ioos:station:NOAA.NERRS:marabwq:1,2016-03-08T23:45:00Z,27.9798,-97.0287,0.0,21.8,2 
NERRS,ioos:station:NOAA.NERRS:marabwq:1,2016-03-09T00:45:00Z,27.9798,-97.0287,0.0,21.8,2 
NERRS,ioos:station:NOAA.NERRS:marabwq:1,2016-03-09T01:45:00Z,27.9798,-97.0287,0.0,21.6,2 
NERRS,ioos:station:NOAA.NERRS:marabwq:1,2016-03-09T02:45:00Z,27.9798,-97.0287,0.0,21.6,2 
NERRS,ioos:station:NOAA.NERRS:marabwq:1,2016-03-09T04:45:00Z,27.9798,-97.0287,0.0,21.6,2 
NERRS,ioos:station:NOAA.NERRS:marabwq:1,2016-03-09T05:45:00Z,27.9798,-97.0287,0.0,21.6,2 
NERRS,ioos:station:NOAA.NERRS:marabwq:1,2016-03-09T06:45:00Z,27.9798,-97.0287,0.0,21.6,2 
NERRS,ioos:station:NOAA.NERRS:marabwq:1,2016-03-09T07:45:00Z,27.9798,-97.0287,0.0,21.7,2 
NERRS,ioos:station:NOAA.NERRS:marabwq:1,2016-03-09T09:45:00Z,27.9798,-97.0287,0.0,21.6,2 
NERRS,ioos:station:NOAA.NERRS:marabwq:1,2016-03-09T10:45:00Z,27.9798,-97.0287,0.0,21.3,2 
NERRS,ioos:station:NOAA.NERRS:marabwq:1,2016-03-09T11:45:00Z,27.9798,-97.0287,0.0,21.4,2 
NERRS,ioos:station:NOAA.NERRS:marabwq:1,2016-03-09T12:45:00Z,27.9798,-97.0287,0.0,21.2,2 
NERRS,ioos:station:NOAA.NERRS:marabwq:1,2016-03-09T13:45:00Z,27.9798,-97.0287,0.0,21.2,2 
NERRS,ioos:station:NOAA.NERRS:marabwq:1,2016-03-09T14:45:00Z,27.9798,-97.0287,0.0,21.2,2 
NERRS,ioos:station:NOAA.NERRS:marabwq:1,2016-03-09T15:45:00Z,27.9798,-97.0287,0.0,21.3,2 
NERRS,ioos:station:NOAA.NERRS:marabwq:1,2016-03-09T16:45:00Z,27.9798,-97.0287,0.0,21.5,2 
NERRS,ioos:station:NOAA.NERRS:marabwq:1,2016-03-09T17:45:00Z,27.9798,-97.0287,0.0,21.5,2 
NERRS,ioos:station:NOAA.NERRS:marabwq:1,2016-03-09T18:45:00Z,27.9798,-97.0287,0.0,21.5,2 
NERRS,ioos:station:NOAA.NERRS:marabwq:1,2016-03-09T19:45:00Z,27.9798,-97.0287,0.0,21.6,2 
NERRS,ioos:station:NOAA.NERRS:marabwq:1,2016-03-09T20:45:00Z,27.9798,-97.0287,0.0,21.6,2 
NERRS,ioos:station:NOAA.NERRS:marabwq:1,2016-03-09T21:45:00Z,27.9798,-97.0287,0.0,21.6,2 
NERRS,ioos:station:NOAA.NERRS:marabwq:1,2016-03-09T22:45:00Z,27.9798,-97.0287,0.0,21.6,2 
NERRS,ioos:station:NOAA.NERRS:marabwq:1,2016-03-09T23:45:00Z,27.9798,-97.0287,0.0,21.7,2 
NERRS,ioos:station:NOAA.NERRS:marabwq:1,2016-03-10T00:45:00Z,27.9798,-97.0287,0.0,21.5,2 
NERRS,ioos:station:NOAA.NERRS:marabwq:1,2016-03-10T01:45:00Z,27.9798,-97.0287,0.0,21.4,2 
NERRS,ioos:station:NOAA.NERRS:marabwq:1,2016-03-10T02:45:00Z,27.9798,-97.0287,0.0,21.4,2 
NERRS,ioos:station:NOAA.NERRS:marabwq:1,2016-03-10T03:45:00Z,27.9798,-97.0287,0.0,21.4,2 
NERRS,ioos:station:NOAA.NERRS:marabwq:1,2016-03-10T04:45:00Z,27.9798,-97.0287,0.0,21.5,2 
NERRS,ioos:station:NOAA.NERRS:marabwq:1,2016-03-10T05:45:00Z,27.9798,-97.0287,0.0,21.4,2 
NERRS,ioos:station:NOAA.NERRS:marabwq:1,2016-03-10T06:45:00Z,27.9798,-97.0287,0.0,21.4,2 
NERRS,ioos:station:NOAA.NERRS:marabwq:1,2016-03-10T07:45:00Z,27.9798,-97.0287,0.0,21.4,2 
NERRS,ioos:station:NOAA.NERRS:marabwq:1,2016-03-10T09:45:00Z,27.9798,-97.0287,0.0,21.3,2 
NERRS,ioos:station:NOAA.NERRS:marabwq:1,2016-03-10T11:45:00Z,27.9798,-97.0287,0.0,21.2,2 
NERRS,ioos:station:NOAA.NERRS:marabwq:1,2016-03-10T12:45:00Z,27.9798,-97.0287,0.0,21.2,2 
NERRS,ioos:station:NOAA.NERRS:marabwq:1,2016-03-10T13:45:00Z,27.9798,-97.0287,0.0,21.2,2 
NERRS,ioos:station:NOAA.NERRS:marabwq:1,2016-03-10T14:45:00Z,27.9798,-97.0287,0.0,21.1,2 
NERRS,ioos:station:NOAA.NERRS:marabwq:1,2016-03-10T15:45:00Z,27.9798,-97.0287,0.0,21.2,2 
NERRS,ioos:station:NOAA.NERRS:marabwq:1,2016-03-10T16:45:00Z,27.9798,-97.0287,0.0,21.3,2 
NERRS,ioos:station:NOAA.NERRS:marabwq:1,2016-03-10T17:45:00Z,27.9798,-97.0287,0.0,21.3,2 
NERRS,ioos:station:NOAA.NERRS:marabwq:1,2016-03-10T18:45:00Z,27.9798,-97.0287,0.0,21.3,2 
NERRS,ioos:station:NOAA.NERRS:marabwq:1,2016-03-10T19:45:00Z,27.9798,-97.0287,0.0,21.3,2 
NERRS,ioos:station:NOAA.NERRS:marabwq:1,2016-03-10T20:45:00Z,27.9798,-97.0287,0.0,21.3,2 
NERRS,ioos:station:NOAA.NERRS:marabwq:1,2016-03-10T21:45:00Z,27.9798,-97.0287,0.0,21.4,2 
NERRS,ioos:station:NOAA.NERRS:marabwq:1,2016-03-10T22:45:00Z,27.9798,-97.0287,0.0,21.3,2 
NERRS,ioos:station:NOAA.NERRS:marabwq:1,2016-03-10T23:45:00Z,27.9798,-97.0287,0.0,21.4,2 
NERRS,ioos:station:NOAA.NERRS:marabwq:1,2016-03-11T00:45:00Z,27.9798,-97.0287,0.0,21.4,2 
NERRS,ioos:station:NOAA.NERRS:marabwq:1,2016-03-11T01:45:00Z,27.9798,-97.0287,0.0,21.6,2 
NERRS,ioos:station:NOAA.NERRS:marabwq:1,2016-03-11T02:45:00Z,27.9798,-97.0287,0.0,21.6,2 
NERRS,ioos:station:NOAA.NERRS:marabwq:1,2016-03-11T03:45:00Z,27.9798,-97.0287,0.0,21.6,2 
NERRS,ioos:station:NOAA.NERRS:marabwq:1,2016-03-11T04:45:00Z,27.9798,-97.0287,0.0,21.5,2 
NERRS,ioos:station:NOAA.NERRS:marabwq:1,2016-03-11T05:45:00Z,27.9798,-97.0287,0.0,21.5,2 
NERRS,ioos:station:NOAA.NERRS:marabwq:1,2016-03-11T06:45:00Z,27.9798,-97.0287,0.0,21.4,2 
NERRS,ioos:station:NOAA.NERRS:marabwq:1,2016-03-11T07:45:00Z,27.9798,-97.0287,0.0,21.3,2 
NERRS,ioos:station:NOAA.NERRS:marabwq:1,2016-03-11T09:45:00Z,27.9798,-97.0287,0.0,21.2,2 
NERRS,ioos:station:NOAA.NERRS:marabwq:1,2016-03-11T10:45:00Z,27.9798,-97.0287,0.0,21.2,2 
NERRS,ioos:station:NOAA.NERRS:marabwq:1,2016-03-11T11:45:00Z,27.9798,-97.0287,0.0,21.2,2 
NERRS,ioos:station:NOAA.NERRS:marabwq:1,2016-03-11T12:45:00Z,27.9798,-97.0287,0.0,21.1,2 
NERRS,ioos:station:NOAA.NERRS:marabwq:1,2016-03-11T14:45:00Z,27.9798,-97.0287,0.0,21.1,2 
NERRS,ioos:station:NOAA.NERRS:marabwq:1,2016-03-11T15:45:00Z,27.9798,-97.0287,0.0,21.1,2 
NERRS,ioos:station:NOAA.NERRS:marabwq:1,2016-03-11T17:45:00Z,27.9798,-97.0287,0.0,21.2,2 
NERRS,ioos:station:NOAA.NERRS:marabwq:1,2016-03-11T19:45:00Z,27.9798,-97.0287,0.0,21.3,2 
NERRS,ioos:station:NOAA.NERRS:marabwq:1,2016-03-11T20:45:00Z,27.9798,-97.0287,0.0,21.4,2 
NERRS,ioos:station:NOAA.NERRS:marabwq:1,2016-03-11T22:45:00Z,27.9798,-97.0287,0.0,21.5,2 
NERRS,ioos:station:NOAA.NERRS:marabwq:1,2016-03-11T23:45:00Z,27.9798,-97.0287,0.0,21.5,2 
NERRS,ioos:station:NOAA.NERRS:marabwq:1,2016-03-12T00:45:00Z,27.9798,-97.0287,0.0,21.4,2 
NERRS,ioos:station:NOAA.NERRS:marabwq:1,2016-03-12T01:45:00Z,27.9798,-97.0287,0.0,21.4,2 
NERRS,ioos:station:NOAA.NERRS:marabwq:1,2016-03-12T02:45:00Z,27.9798,-97.0287,0.0,21.4,2 
NERRS,ioos:station:NOAA.NERRS:marabwq:1,2016-03-12T03:45:00Z,27.9798,-97.0287,0.0,21.3,2 
NERRS,ioos:station:NOAA.NERRS:marabwq:1,2016-03-12T06:45:00Z,27.9798,-97.0287,0.0,21.1,2 
NERRS,ioos:station:NOAA.NERRS:marabwq:1,2016-03-12T07:45:00Z,27.9798,-97.0287,0.0,21.0,2 
NERRS,ioos:station:NOAA.NERRS:marabwq:1,2016-03-12T09:45:00Z,27.9798,-97.0287,0.0,21.0,2 
NERRS,ioos:station:NOAA.NERRS:marabwq:1,2016-03-12T10:45:00Z,27.9798,-97.0287,0.0,20.9,2 
NERRS,ioos:station:NOAA.NERRS:marabwq:1,2016-03-12T11:45:00Z,27.9798,-97.0287,0.0,20.8,2 
NERRS,ioos:station:NOAA.NERRS:marabwq:1,2016-03-12T12:45:00Z,27.9798,-97.0287,0.0,20.8,2 
NERRS,ioos:station:NOAA.NERRS:marabwq:1,2016-03-12T14:45:00Z,27.9798,-97.0287,0.0,20.7,2 
NERRS,ioos:station:NOAA.NERRS:marabwq:1,2016-03-12T15:45:00Z,27.9798,-97.0287,0.0,20.8,2 
NERRS,ioos:station:NOAA.NERRS:marabwq:1,2016-03-12T17:45:00Z,27.9798,-97.0287,0.0,20.9,2 
NERRS,ioos:station:NOAA.NERRS:marabwq:1,2016-03-12T18:45:00Z,27.9798,-97.0287,0.0,20.9,2 
NERRS,ioos:station:NOAA.NERRS:marabwq:1,2016-03-12T20:45:00Z,27.9798,-97.0287,0.0,21.0,2 
NERRS,ioos:station:NOAA.NERRS:marabwq:1,2016-03-12T21:45:00Z,27.9798,-97.0287,0.0,21.0,2 
NERRS,ioos:station:NOAA.NERRS:marabwq:1,2016-03-12T22:45:00Z,27.9798,-97.0287,0.0,21.0,2 
NERRS,ioos:station:NOAA.NERRS:marabwq:1,2016-03-12T23:45:00Z,27.9798,-97.0287,0.0,21.2,2 
NERRS,ioos:station:NOAA.NERRS:marabwq:1,2016-03-13T00:45:00Z,27.9798,-97.0287,0.0,21.2,2 
NERRS,ioos:station:NOAA.NERRS:marabwq:1,2016-03-13T01:45:00Z,27.9798,-97.0287,0.0,21.2,2 
NERRS,ioos:station:NOAA.NERRS:marabwq:1,2016-03-13T02:45:00Z,27.9798,-97.0287,0.0,21.2,2 
NERRS,ioos:station:NOAA.NERRS:marabwq:1,2016-03-13T04:45:00Z,27.9798,-97.0287,0.0,21.2,2 
NERRS,ioos:station:NOAA.NERRS:marabwq:1,2016-03-13T05:45:00Z,27.9798,-97.0287,0.0,21.3,2 
NERRS,ioos:station:NOAA.NERRS:marabwq:1,2016-03-13T06:45:00Z,27.9798,-97.0287,0.0,21.2,2 
NERRS,ioos:station:NOAA.NERRS:marabwq:1,2016-03-13T07:45:00Z,27.9798,-97.0287,0.0,21.2,2 
NERRS,ioos:station:NOAA.NERRS:marabwq:1,2016-03-13T09:45:00Z,27.9798,-97.0287,0.0,21.1,2 
NERRS,ioos:station:NOAA.NERRS:marabwq:1,2016-03-13T11:45:00Z,27.9798,-97.0287,0.0,21.0,2 
NERRS,ioos:station:NOAA.NERRS:marabwq:1,2016-03-13T12:45:00Z,27.9798,-97.0287,0.0,21.0,2 
NERRS,ioos:station:NOAA.NERRS:marabwq:1,2016-03-13T14:45:00Z,27.9798,-97.0287,0.0,21.0,2 
NERRS,ioos:station:NOAA.NERRS:marabwq:1,2016-03-13T15:45:00Z,27.9798,-97.0287,0.0,21.0,2 
NERRS,ioos:station:NOAA.NERRS:marabwq:1,2016-03-13T16:45:00Z,27.9798,-97.0287,0.0,21.1,2 
NERRS,ioos:station:NOAA.NERRS:marabwq:1,2016-03-13T17:45:00Z,27.9798,-97.0287,0.0,21.2,2 
NERRS,ioos:station:NOAA.NERRS:marabwq:1,2016-03-13T19:45:00Z,27.9798,-97.0287,0.0,21.4,2 
NERRS,ioos:station:NOAA.NERRS:marabwq:1,2016-03-13T21:45:00Z,27.9798,-97.0287,0.0,21.9,2 
NERRS,ioos:station:NOAA.NERRS:marabwq:1,2016-03-13T22:45:00Z,27.9798,-97.0287,0.0,22.0,2 
NERRS,ioos:station:NOAA.NERRS:marabwq:1,2016-03-13T23:45:00Z,27.9798,-97.0287,0.0,22.0,2 
NERRS,ioos:station:NOAA.NERRS:marabwq:1,2016-03-14T00:45:00Z,27.9798,-97.0287,0.0,21.9,2 
NERRS,ioos:station:NOAA.NERRS:marabwq:1,2016-03-14T01:45:00Z,27.9798,-97.0287,0.0,21.9,2 
NERRS,ioos:station:NOAA.NERRS:marabwq:1,2016-03-14T03:45:00Z,27.9798,-97.0287,0.0,21.8,2 
NERRS,ioos:station:NOAA.NERRS:marabwq:1,2016-03-14T04:45:00Z,27.9798,-97.0287,0.0,21.8,2 
NERRS,ioos:station:NOAA.NERRS:marabwq:1,2016-03-14T05:45:00Z,27.9798,-97.0287,0.0,21.8,2 